RH
56 53 61 62 57 55 52 46 35 30 28 24 22 21 21 22 21 21 20 18 15 13 12 11 9 9 9 9 9 8 8 7 5 4 4 6 7 7 5 4 4 5 5 5 5 5 4 5 6 8 8 7 6 6 7 7 8 8 9 9 10 10 10 10 9 10 11 10 10 12 14 14 14 16 18 18 18 19 19 19 19 18 19 19 19 19 19 20
58 56 64 65 58 55 47 39 32 28 25 22 21 21 21 22 22 21 19 16 13 11 10 9 9 9 9 9 9 8 7 5 3 4 5 7 7 6 5 3 4 5 5 5 5 5 5 4 5 6 6 6 6 7 7 8 9 9 10 9 10 9 9 10 10 10 11 10 11 12 14 14 14 16 17 15 16 18 19 19 21 20 20 21 21 22 23 23
58 59 64 60 53 49 39 34 30 25 23 22 21 21 21 22 21 19 16 13 11 9 9 8 9 10 9 9 9 7 6 4 3 5 6 7 6 6 5 4 4 5 5 5 6 5 5 5 5 5 5 6 6 7 8 9 9 10 10 9 9 10 10 10 11 11 12 12 12 12 15 16 16 17 17 17 17 19 20 20 22 23 22 22 23 24 25 26
55 59 59 51 45 42 38 34 30 24 23 22 21 21 21 20 19 16 13 11 10 9 9 9 9 8 8 8 7 6 6 5 4 5 6 6 6 6 5 5 5 5 6 6 6 5 5 6 6 6 6 6 8 7 8 9 9 10 10 9 9 11 10 10 12 12 13 14 13 14 16 17 18 19 19 20 19 18 18 20 20 22 22 22 24 26 26 26
51 51 47 41 38 37 36 32 27 24 23 21 21 21 20 18 16 13 11 9 9 9 10 10 9 7 5 5 6 7 7 5 4 5 6 6 6 6 5 5 5 5 6 6 7 6 6 7 6 7 7 7 8 8 10 11 10 11 10 10 11 11 11 11 12 12 13 14 15 16 16 16 18 20 21 22 20 17 17 19 18 20 22 22 24 26 27 28
47 43 38 34 32 31 30 27 24 23 21 21 20 19 18 15 13 10 9 8 9 9 9 9 7 6 6 5 4 5 6 5 4 5 6 6 6 5 5 5 5 5 5 6 6 7 7 7 7 8 8 8 10 9 11 12 11 10 10 11 11 12 11 11 12 12 13 14 15 15 15 17 19 20 22 23 20 17 17 19 19 21 23 24 25 26 28 29
45 42 37 31 29 27 25 23 22 21 20 20 18 17 15 12 10 9 8 8 9 8 7 7 7 7 7 5 3 3 5 5 5 5 6 6 5 5 5 5 5 5 5 5 5 6 6 7 7 8 9 10 11 11 12 12 12 11 11 12 12 12 12 11 12 12 13 14 14 14 15 18 19 19 21 22 18 17 19 19 20 22 24 25 26 27 28 29
41 40 35 29 27 25 23 22 21 20 19 17 15 14 12 10 9 8 8 7 7 6 6 6 7 7 6 5 4 3 5 5 5 5 6 5 5 5 6 6 6 6 5 5 5 5 6 7 8 8 10 11 11 12 12 11 12 13 12 13 13 13 13 12 13 13 13 14 14 15 16 17 18 19 21 20 17 19 20 20 21 23 25 26 27 28 30 31
38 35 30 27 26 24 22 21 21 19 17 15 13 12 10 9 9 9 8 6 4 4 5 5 6 6 5 4 3 4 5 5 4 5 5 5 5 5 6 6 6 7 6 6 6 6 6 7 8 8 9 11 11 12 12 10 11 13 14 14 14 14 14 14 14 14 14 14 15 16 15 16 19 20 20 19 19 20 21 22 24 26 28 29 30 31 33 34
35 32 29 27 26 23 22 22 21 18 15 13 11 9 8 9 10 9 7 5 4 4 4 4 4 4 4 3 4 5 5 5 5 4 4 5 5 5 6 6 7 7 7 7 6 6 6 7 8 8 9 10 11 12 13 11 12 15 16 16 15 14 14 15 15 14 14 15 16 16 15 17 21 22 19 19 20 21 22 24 26 30 32 33 34 36 37 37
33 31 30 30 27 25 24 24 20 16 13 11 9 9 9 9 8 7 6 5 5 4 4 3 4 4 3 3 4 5 5 5 5 4 4 5 5 5 6 7 7 7 8 7 7 7 7 7 8 9 9 9 11 12 14 14 14 15 16 16 15 14 13 15 15 15 15 14 17 18 17 19 23 23 20 20 21 23 24 26 28 31 33 34 36 37 39 40
32 32 32 32 30 27 26 23 17 13 11 9 9 9 9 7 6 5 5 4 4 4 4 4 4 4 3 4 5 6 5 5 5 5 5 5 5 5 6 7 7 8 8 8 7 7 8 8 9 9 9 10 11 13 14 14 14 14 15 14 14 13 13 15 16 15 15 15 18 19 18 20 22 22 20 21 22 24 26 28 29 31 32 34 36 37 40 42
31 33 33 34 32 28 26 21 15 11 9 8 9 8 7 5 4 4 4 4 4 4 4 4 4 4 4 4 5 6 5 5 5 5 6 5 6 6 6 7 7 8 8 8 8 8 8 8 8 9 10 11 14 14 14 14 13 13 15 14 12 12 13 15 16 16 16 16 19 18 17 19 19 19 20 21 23 25 27 28 29 30 32 34 35 37 41 45
31 33 35 36 32 27 23 18 12 9 9 8 8 6 5 5 4 4 4 4 5 5 5 5 5 4 4 5 6 6 6 6 5 6 6 6 6 7 7 7 7 8 9 9 8 8 8 8 8 9 9 11 13 14 15 15 12 12 15 15 12 13 14 15 16 16 15 17 19 19 18 18 18 18 20 21 23 25 26 27 29 31 33 34 35 38 43 47
34 34 37 35 29 24 20 14 9 9 8 7 6 5 5 5 5 5 5 5 5 5 5 5 5 6 5 6 6 6 6 6 6 6 6 7 7 7 7 7 7 8 9 9 9 9 8 8 9 10 11 11 12 14 14 13 12 13 14 14 13 14 14 15 17 18 16 17 19 19 19 18 18 19 21 23 23 25 25 28 30 32 34 36 37 40 43 47
36 37 37 31 26 23 16 9 8 8 7 6 6 6 6 6 5 5 5 5 5 5 5 5 5 5 6 6 6 6 6 6 7 7 7 7 7 7 7 8 8 8 9 10 9 9 8 9 10 11 12 13 13 13 12 12 13 13 14 15 15 16 16 15 18 20 19 18 19 19 20 20 19 19 21 23 24 25 26 28 31 34 36 37 39 40 43 48
38 38 34 28 24 19 11 9 9 7 6 6 6 6 6 5 5 5 5 5 5 5 5 6 5 5 6 7 7 7 7 7 7 7 8 8 7 7 8 8 8 9 10 10 9 9 9 9 11 11 13 14 14 13 13 14 14 13 15 16 16 17 17 16 18 21 20 20 19 19 21 21 20 20 22 24 27 28 27 30 33 36 37 39 40 42 46 50
39 35 29 26 22 13 8 9 8 5 5 5 5 5 5 5 5 5 6 6 5 6 5 6 6 6 7 7 8 8 7 8 8 8 8 8 8 8 9 9 9 9 10 10 9 9 9 10 11 12 13 14 15 14 14 16 16 16 17 18 18 18 18 18 18 20 20 21 20 19 20 21 21 22 24 28 30 30 31 33 35 37 39 41 43 45 47 50
36 30 26 24 16 8 8 8 6 5 5 5 5 5 5 5 5 5 6 6 6 7 7 7 7 8 8 8 8 8 7 8 8 8 8 9 9 9 9 9 9 9 10 10 10 11 12 12 12 13 14 15 17 17 17 18 19 19 20 21 21 19 19 18 18 20 21 21 20 20 20 21 21 23 27 29 31 32 33 35 37 38 40 42 44 45 46 49
31 27 25 19 11 8 9 7 5 6 6 5 5 5 6 6 6 7 6 6 7 8 8 8 8 8 9 9 9 8 8 8 9 9 9 9 10 10 10 9 10 11 12 14 13 12 13 14 14 15 17 17 18 20 21 21 22 22 21 21 21 20 18 17 17 20 21 21 19 19 21 22 23 26 28 30 31 32 35 36 36 38 41 43 43 44 46 49
28 26 21 13 8 9 8 6 6 6 6 6 6 7 7 7 7 8 7 7 8 8 8 8 8 8 9 9 9 9 9 9 9 9 9 10 10 10 10 11 12 12 15 18 16 13 14 14 15 17 18 19 20 22 22 23 23 23 21 19 20 20 19 16 17 20 21 21 20 19 21 23 26 28 29 31 31 32 35 36 36 39 41 41 42 44 46 49
28 23 14 8 8 8 6 6 6 5 5 6 6 7 7 7 7 7 7 9 8 8 8 8 9 9 9 9 9 9 10 10 10 9 10 10 10 11 11 12 14 14 17 18 15 14 14 15 17 19 20 22 23 23 23 23 21 20 19 19 19 19 18 17 17 20 21 21 20 20 22 24 27 29 29 30 31 32 36 36 37 39 40 40 42 44 47 52
24 16 9 8 8 6 5 6 6 5 6 5 6 6 7 7 7 7 7 8 9 9 9 8 9 10 9 9 10 10 10 11 12 10 10 11 11 12 13 14 15 16 17 17 14 13 14 15 19 22 23 22 20 20 21 20 19 19 19 20 20 19 20 20 18 20 21 21 22 22 22 24 27 28 29 31 31 33 35 35 36 37 39 41 43 47 53 59
16 10 9 8 7 6 6 6 5 6 6 6 7 6 7 8 8 8 7 8 9 9 9 9 9 10 10 10 10 11 11 11 12 12 11 12 12 14 15 16 16 15 17 19 16 14 16 18 21 23 22 20 19 18 19 19 18 19 20 21 21 20 21 21 20 20 20 22 23 22 21 24 28 30 30 31 31 33 33 34 37 39 40 43 48 56 60 63
10 10 10 8 7 7 7 6 6 7 7 7 7 7 8 9 9 10 9 9 9 9 10 10 9 10 11 10 10 11 11 11 12 12 12 12 13 15 15 15 15 14 17 21 18 15 17 20 22 21 20 19 19 18 19 19 19 20 21 21 22 22 21 21 21 21 21 23 24 24 24 25 28 31 32 31 31 32 34 37 41 42 43 49 58 63 64 68
10 11 10 8 7 8 7 7 7 7 8 8 8 9 9 10 11 11 12 12 10 9 11 11 10 11 11 11 10 10 11 12 12 12 12 13 13 15 15 15 15 16 18 20 18 16 18 20 21 20 20 20 18 18 19 21 22 22 22 22 23 23 23 22 22 24 24 25 25 26 29 27 26 31 33 32 34 36 40 42 42 44 49 56 62 65 71 79
11 10 8 8 8 8 8 8 7 8 8 8 9 9 9 10 11 10 13 13 10 10 11 10 11 11 11 11 11 11 12 12 12 13 13 13 13 13 15 15 16 17 19 20 17 17 19 19 19 20 20 19 18 19 20 21 23 23 22 22 23 23 23 23 24 25 25 26 25 25 29 29 27 33 36 35 38 43 43 43 44 50 57 62 67 74 82 85
10 9 8 8 8 8 8 8 7 7 8 9 9 8 8 10 10 10 13 13 9 10 12 11 11 11 11 11 11 11 12 13 14 13 13 14 14 14 15 17 17 17 19 19 15 17 20 19 20 21 19 19 19 20 21 22 23 22 22 23 23 23 23 23 23 24 25 26 26 25 27 30 29 34 41 42 44 46 45 46 51 57 62 67 74 81 83 81
9 8 8 9 8 8 8 7 7 7 8 9 9 9 9 10 10 11 13 11 9 11 12 11 11 11 12 12 12 12 12 13 14 14 13 14 15 15 15 16 18 19 19 18 16 17 20 20 22 23 20 20 21 21 22 23 23 22 23 23 22 22 22 22 22 24 26 26 26 26 28 34 35 35 41 46 47 48 48 52 59 63 67 71 75 77 74 68
8 9 9 8 8 8 7 6 7 6 7 9 9 10 11 11 12 11 11 10 10 11 12 12 13 13 14 14 14 14 14 14 14 15 15 15 15 16 15 16 17 18 18 18 17 19 22 24 25 24 22 22 22 23 24 24 23 23 23 21 20 21 22 23 22 23 27 27 28 30 34 40 43 40 44 48 49 51 54 59 64 68 71 72 71 66 59 50
9 9 9 8 7 7 6 6 6 6 8 9 10 11 10 12 14 12 11 11 11 12 12 14 17 17 16 15 13 15 17 16 16 17 17 17 18 17 17 17 17 17 17 18 18 20 23 24 23 24 24 24 23 23 25 25 24 24 22 20 20 22 22 23 24 25 30 32 33 34 36 42 45 44 46 49 50 53 60 67 71 71 72 69 61 52 44 36
9 9 8 7 6 5 5 5 7 7 7 9 10 11 11 12 12 11 11 11 11 12 13 16 19 18 17 16 14 16 18 16 16 19 19 19 20 19 19 19 19 19 18 18 18 19 20 21 22 24 25 24 23 22 23 25 24 23 22 22 24 26 28 29 29 29 32 35 35 36 39 42 42 41 45 48 50 56 65 72 73 73 70 62 52 43 35 26
8 8 7 6 5 5 5 6 7 6 6 9 9 10 14 13 10 11 14 12 11 13 15 18 19 18 17 15 14 16 17 16 17 19 20 19 20 20 21 21 21 20 19 19 19 19 21 21 22 24 24 24 23 22 24 25 24 25 25 28 31 34 40 42 38 36 37 35 34 36 39 42 41 41 45 48 51 59 67 71 73 70 62 51 44 37 27 18
8 7 6 6 5 5 6 6 7 7 7 9 9 10 12 11 10 13 13 12 13 16 17 19 17 15 15 13 14 16 16 16 17 18 19 19 19 20 21 22 22 22 20 20 21 22 23 23 22 23 24 24 24 25 27 27 27 28 28 31 35 39 46 50 44 44 45 40 37 39 40 42 44 44 46 49 53 60 65 68 67 60 49 42 36 26 18 16
7 6 5 5 6 6 7 7 7 8 8 9 12 13 11 11 11 12 12 12 15 16 17 18 15 13 13 13 15 16 15 16 17 18 19 19 19 20 21 22 23 23 22 22 23 24 24 23 23 25 26 25 26 28 30 29 29 30 30 32 37 39 42 45 44 45 48 46 44 41 39 42 45 45 47 50 54 59 62 61 54 47 42 39 31 20 16 18
6 5 4 5 6 6 8 8 8 9 9 10 14 14 13 13 12 12 15 16 15 15 16 16 14 13 14 13 15 17 16 17 18 17 18 20 21 21 22 24 24 25 25 23 25 25 25 24 24 26 27 27 28 30 31 32 31 31 33 36 38 38 40 43 42 40 42 46 45 41 40 41 44 47 48 50 55 57 55 50 45 44 43 36 26 21 21 19
5 5 5 6 7 7 8 9 9 9 9 11 15 13 12 14 13 15 19 19 17 17 15 13 14 14 15 14 14 17 17 18 18 17 17 19 22 22 23 25 26 27 27 26 26 26 28 27 25 26 28 28 30 31 30 32 33 33 37 39 37 38 40 44 45 43 43 46 43 43 47 46 47 51 51 50 54 52 47 45 45 46 39 26 19 19 21 16
6 6 7 7 7 8 8 9 10 10 9 13 17 15 13 15 16 19 21 20 20 17 13 13 14 14 16 15 15 18 20 18 18 18 17 18 21 23 24 24 26 29 30 29 27 27 29 29 27 27 28 28 30 31 31 32 33 35 38 38 39 44 46 47 52 55 57 55 48 44 47 49 50 53 52 53 52 48 46 46 47 45 35 23 18 18 17 15
7 7 8 8 9 9 9 10 10 9 10 15 18 16 14 17 20 22 22 21 19 16 14 15 14 15 16 15 15 19 21 19 18 18 18 18 21 24 25 25 26 29 32 30 28 28 30 30 29 28 29 29 29 30 32 33 34 36 38 38 40 45 48 50 53 57 60 61 59 56 51 48 50 51 53 54 50 48 49 48 46 40 29 21 20 21 18 15
8 9 8 9 9 9 9 9 9 11 15 17 17 17 16 18 22 23 22 21 18 15 15 16 15 15 15 16 17 18 21 21 20 19 19 19 21 24 27 28 27 29 32 32 30 30 30 31 31 29 29 31 31 31 33 33 36 38 41 43 45 45 47 50 51 53 59 63 66 69 60 49 49 51 50 51 49 49 50 48 42 31 19 16 21 25 22 17
9 10 9 8 9 9 8 9 13 17 18 17 17 17 18 19 21 24 24 23 21 18 16 17 17 16 15 16 17 18 20 21 20 20 20 20 21 23 28 32 32 32 32 29 29 30 31 32 32 31 30 31 32 33 34 35 37 40 43 46 47 48 50 53 53 53 58 63 66 74 71 55 49 50 48 49 50 49 48 44 36 24 15 17 22 24 22 18
10 10 9 8 9 8 8 13 19 21 18 18 18 19 20 20 21 24 24 23 22 20 19 18 19 19 17 17 17 19 21 20 20 21 20 21 21 24 30 34 35 35 32 28 29 32 33 33 34 34 32 31 33 36 38 38 38 40 44 44 45 48 51 56 59 56 58 60 60 69 72 57 50 50 48 49 50 48 45 40 30 20 16 18 19 18 17 17
9 9 9 8 8 8 9 14 19 19 19 20 21 21 21 20 20 22 23 21 20 20 20 19 20 20 18 19 20 20 20 20 20 21 20 22 23 27 34 35 35 37 34 29 30 33 34 34 35 34 31 31 34 36 38 39 40 41 44 44 46 49 50 54 59 58 61 62 60 68 71 59 51 50 48 50 51 48 44 38 29 23 20 19 17 15 16 18
8 8 8 8 8 8 11 15 16 18 19 19 18 19 20 20 20 20 20 20 20 20 20 20 21 20 20 23 22 21 21 20 20 21 22 23 24 30 35 35 35 37 34 30 33 35 34 33 34 35 34 34 36 37 38 40 42 43 45 46 48 51 54 56 58 60 64 63 64 73 72 57 49 48 49 52 51 47 43 36 28 23 21 18 16 16 17 19
8 8 7 8 8 8 11 13 14 18 19 16 15 16 17 18 20 20 20 22 22 21 20 20 21 21 23 25 23 23 24 22 20 22 24 24 25 30 34 34 35 37 36 35 37 37 34 33 35 37 40 42 42 42 42 42 44 45 47 50 51 53 56 57 59 65 66 64 68 73 65 51 45 46 51 52 48 46 40 31 23 20 18 17 16 17 19 19
8 8 8 8 7 8 10 10 11 15 17 16 14 15 15 16 19 21 21 21 23 23 21 22 23 23 22 22 22 22 24 23 23 24 25 25 25 29 33 35 36 38 39 40 38 36 35 36 37 38 40 43 45 43 42 43 46 48 50 52 53 55 57 56 60 65 65 68 72 70 65 60 51 49 52 50 49 47 37 24 20 19 18 18 17 17 18 17
8 11 10 9 8 8 10 10 10 12 13 14 13 13 15 16 17 20 21 21 23 24 23 23 23 21 20 21 21 21 23 24 24 25 27 28 27 28 33 37 37 38 40 40 37 35 35 36 38 41 41 41 42 42 42 45 47 49 51 53 53 56 58 59 62 63 64 74 75 64 65 67 57 52 55 52 50 45 30 21 20 19 19 19 17 17 17 17
9 10 10 9 10 11 12 10 11 12 13 14 15 16 16 16 15 17 19 22 24 25 22 21 21 21 21 21 21 21 23 23 24 26 29 30 30 29 30 35 38 38 39 38 36 35 34 35 40 45 44 42 42 43 43 46 47 47 49 51 51 56 60 61 63 62 66 76 73 61 63 65 56 54 57 53 49 39 26 22 21 20 20 19 17 18 17 18
8 9 9 9 10 13 14 11 11 14 14 15 17 16 15 15 13 15 20 21 22 23 22 19 18 21 24 24 21 22 23 22 23 27 30 31 32 30 29 32 35 37 38 37 36 36 34 35 42 47 47 44 42 43 44 46 47 47 48 49 50 54 58 60 62 63 65 70 67 61 62 61 56 56 54 48 41 32 25 24 22 21 20 18 18 19 19 19
7 7 8 9 10 12 13 12 11 12 13 14 14 14 15 14 11 15 20 19 17 20 22 20 19 23 28 26 23 22 24 22 22 26 29 30 31 31 30 30 32 36 38 39 40 38 34 37 44 46 44 42 41 42 44 45 45 46 47 49 51 54 57 61 64 65 67 68 64 62 63 60 54 53 51 44 37 29 25 24 23 22 20 18 19 21 20 20
6 6 6 7 10 12 12 12 11 11 11 11 11 13 15 13 11 14 18 18 17 19 20 20 22 27 30 29 26 25 24 24 24 25 27 28 27 29 30 29 32 36 40 41 43 40 36 38 42 42 41 41 41 43 44 44 45 49 51 51 52 55 58 62 64 65 67 68 65 65 66 60 53 52 51 45 35 29 26 24 23 22 20 20 22 22 21 21
6 6 5 6 10 12 12 11 11 11 10 9 11 15 16 13 12 14 15 17 20 21 21 22 23 26 28 28 27 26 25 26 27 27 28 28 28 29 30 31 33 36 41 44 44 41 40 39 39 41 42 41 41 43 43 44 46 49 50 51 51 54 57 61 62 62 64 67 68 68 65 61 57 57 56 47 35 29 28 26 25 22 20 21 22 21 22 22